Regional Weather Roundup
Issued by NWS

Home | Current Version | Previous Version | Text Only | Print | Product List | Glossary On
Versions: 1 2 3 4 5 6 7 8 9 10 11 12 13 14 15 16 17 18 19 20 21 22 23 24 25 26 27 28 29 30 31 32 33 34 35 36 37 38 39 40 41 42 43 44 45 46 47 48 49 50
000
ASUS46 KPQR 290310
RWROR

OREGON REGIONAL WEATHER ROUNDUP
NATIONAL WEATHER SERVICE PORTLAND OR
800 PM PDT SAT MAR 28 2015

NOTE: "FAIR" INDICATES FEW OR NO CLOUDS BELOW 12,000 FEET WITH
NO SIGNIFICANT WEATHER AND/OR OBSTRUCTIONS TO VISIBILITY.

ORZ001>013-290400-
NORTHWEST OREGON


CITY           SKY/WX    TMP DP  RH WIND       PRES   REMARKS
ASTORIA        MOCLDY    52  46  80 SW8       30.33F
NEWPORT        CLOUDY    50  46  87 CALM      30.38F
PORTLAND       CLOUDY    58  41  53 CALM      30.34F
VANCOUVER WA   CLOUDY    58  40  51 CALM      30.34S
SCAPPOOSE      CLOUDY    56  42  59 CALM      30.33S
HILLSBORO      CLOUDY    55  42  61 S5        30.33S
AURORA         MOCLDY    55  42  61 CALM      30.35F
MCMINNVILLE    CLOUDY    56  47  71 CALM      30.34F
SALEM          CLOUDY    55  43  63 CALM      30.32F
CORVALLIS      CLOUDY    57  43  58 NW7       30.34F
EUGENE         MOCLDY    52  42  69 NE6       30.33S
$$

ORZ021-028-290400-
SOUTHWEST OREGON


CITY           SKY/WX    TMP DP  RH WIND       PRES   REMARKS
NORTH BEND     MOCLDY    54  48  82 N7        30.35F
BROOKINGS      PTCLDY    54  51  89 VRB3      30.27S
ROSEBURG       CLEAR     60  36  40 NE5       30.30F
SEXTON SUMMIT  CLEAR     44  36  73 N10       30.29F
MEDFORD        CLEAR     58  30  34 SW5       30.26S
$$

ORZ014>016-041-290400-
COLUMBIA GORGE


CITY           SKY/WX    TMP DP  RH WIND       PRES   REMARKS
TROUTDALE      CLOUDY    56  42  59 E3        30.33S
THE DALLES     PTCLDY    56  38  50 W9        30.31F
$$

ORZ029>031-041-044-049-050-061>064-502-503-505>511-290400-
EASTERN OREGON


CITY           SKY/WX    TMP DP  RH WIND       PRES   REMARKS
REDMOND        MOCLDY    48  28  46 NE3       30.29S
BEND           CLOUDY    48  27  43 CALM      30.29F
PRINEVILLE     MOCLDY    48  28  46 W6        30.30R
KLAMATH FALLS  CLEAR     46  31  55 N9        30.27S
LAKEVIEW       PTCLDY    46  23  39 N6        30.29R
HERMISTON      CLEAR     54  36  50 S8        30.30R
PENDLETON      CLEAR     48  37  65 W8        30.30S
JOHN DAY       CLEAR     50  32  50 CALM      30.31R
MEACHAM        CLEAR     39  33  79 CALM      30.32R
LA GRANDE      CLEAR     48  27  43 CALM      30.31R
BAKER CITY     CLEAR     44  30  57 SW6       30.32R
BURNS          MOCLDY    41  28  60 W6        30.30S
ROME             N/A     51  13  21 NE10      30.29R
ONTARIO        CLEAR     54  29  38 CALM      30.29R
$$


USA.gov is the U.S. government's official web portal to all federal, state and local government web resources and services.